"Time","Temp","Dewpoint","Humidity","Pressure","Direction","Speed","Gust","Precip","PrecipRate"
"00:04:59","29.1","19.7","67.8","30.48","335","6.6","19.6","0.00","0.00"
"00:09:57","29","19.7","67.9","30.48","342","7.1","21.9","0.00","0.00"
"00:14:58","29.1","19.5","67","30.48","339","5.5","21.9","0.00","0.00"
"00:19:56","29","19.6","67.6","30.47","333","4.6","12","0.00","0.00"
"00:24:59","29","19.8","68","30.47","330","5.3","12","0.00","0.00"
"00:29:58","28.9","19.7","68","30.47","334","6.6","16.1","0.00","0.00"
"00:34:57","28.8","19.6","68","30.47","342","4.5","12.7","0.00","0.00"
"00:39:57","28.7","19.5","68","30.47","326","4","13.2","0.00","0.00"
"00:44:56","28.7","19.5","68","30.47","344","2.8","16.1","0.00","0.00"
"00:49:59","28.6","19.4","68.1","30.47","324","3.3","9.6","0.00","0.00"
"00:54:58","28.5","19.6","69","30.47","332","2.7","7.2","0.00","0.00"
"00:59:59","28.4","19.5","69","30.47","333","2.9","7.2","0.00","0.00"
"01:04:58","28.4","19.5","69","30.47","304","2.1","7.2","0.00","0.00"
"01:09:57","28.3","19.4","69","30.47","300","1.3","3.6","0.00","0.00"
"01:14:58","28.2","19.3","69","30.47","331","1.1","6","0.00","0.00"
"01:19:57","28","19.1","69","30.47","333","1.1","3.6","0.00","0.00"
"01:24:56","27.9","19.1","69.1","30.47","301","1.1","3.5","0.00","0.00"
"01:29:59","27.7","19.2","70","30.47","300","1.1","3.6","0.00","0.00"
"01:34:58","27.4","19.1","70.7","30.47","301","1.2","3.6","0.00","0.00"
"01:39:59","27","18.8","71","30.47","305","0.9","3.6","0.00","0.00"
"01:44:59","27","18.8","71","30.48","306","0.1","1.2","0.00","0.00"
"01:49:58","26.9","18.7","71","30.48","306","0","1.2","0.00","0.00"
"01:54:57","26.7","18.8","71.7","30.48","306","0","0","0.00","0.00"
"01:59:56","26.4","18.7","72.1","30.48","306","0.5","3.6","0.00","0.00"
"02:04:58","26.1","18.6","73","30.48","306","1.1","3.6","0.00","0.00"
"02:09:57","26","18.5","73","30.48","306","1","3.5","0.00","0.00"
"02:14:58","25.8","18.5","73.4","30.49","306","0.8","2.4","0.00","0.00"
"02:19:57","25.7","18.6","74","30.49","306","0.9","3.6","0.00","0.00"
"02:24:59","25.6","18.5","74.1","30.49","306","2.4","3.6","0.00","0.00"
"02:29:58","25.5","18.7","75","30.49","306","2.2","3.6","0.00","0.00"
"02:34:57","25.7","18.9","74.7","30.49","322","2.2","4.8","0.00","0.00"
"02:39:58","25.8","18.9","74.9","30.49","323","0.5","2.4","0.00","0.00"
"02:44:57","25.6","18.8","75","30.49","323","0","1.2","0.00","0.00"
"02:49:56","25.4","18.6","75","30.49","323","0","0","0.00","0.00"
"02:54:58","25.3","18.5","75","30.49","323","0","0","0.00","0.00"
"02:59:57","25.1","18.4","75.3","30.49","323","0.8","2.4","0.00","0.00"
"03:04:57","25","18.5","76","30.49","323","0.5","2.4","0.00","0.00"
"03:09:57","24.7","18.2","76","30.49","323","0","0","0.00","0.00"
"03:14:58","24.4","18.1","76.4","30.49","323","0","0","0.00","0.00"
"03:19:56","24.2","18","77","30.49","323","0","0","0.00","0.00"
"03:24:55","24","18.1","77.8","30.49","323","0","0","0.00","0.00"
"03:29:57","23.8","17.9","78","30.50","323","0","0","0.00","0.00"
"03:34:56","23.6","17.8","78.3","30.50","323","0","0","0.00","0.00"
"03:39:57","23.4","17.8","79","30.50","323","0","0","0.00","0.00"
"03:44:56","23.1","17.8","79.8","30.50","323","0","0","0.00","0.00"
"03:49:58","22.9","17.7","80","30.50","323","0","0","0.00","0.00"
"03:54:57","22.7","17.6","80.7","30.50","323","0","0","0.00","0.00"
"03:59:56","22.5","17.5","81","30.50","323","0","0","0.00","0.00"
"04:04:59","22.4","17.5","81","30.50","323","0","0","0.00","0.00"
"04:09:58","22.3","17.6","82","30.50","323","0.1","1.2","0.00","0.00"
"04:14:59","22.2","17.5","81.9","30.50","323","0","0","0.00","0.00"
"04:19:58","22.1","17.4","82","30.50","323","0","0","0.00","0.00"
"04:24:56","22","17.3","82","30.50","323","0","0","0.00","0.00"
"04:29:58","21.8","17.3","82.4","30.50","323","0.7","2.4","0.00","0.00"
"04:34:57","21.8","17.4","83","30.50","323","1.1","2.4","0.00","0.00"
"04:39:58","21.9","17.5","83","30.50","323","0","1.2","0.00","0.00"
"04:44:57","21.8","17.4","83","30.50","323","0","0","0.00","0.00"
"04:49:59","21.7","17.3","83","30.50","323","0","0","0.00","0.00"
"04:54:58","21.5","17.1","83","30.50","323","0","0","0.00","0.00"
"04:59:57","21.3","17.1","83.7","30.51","323","0","0","0.00","0.00"
"05:04:59","21.2","17.1","84","30.51","323","0","0","0.00","0.00"
"05:09:58","21.1","17","84","30.51","323","0","0","0.00","0.00"
"05:14:59","21","17.1","84.7","30.51","323","0.4","2.4","0.00","0.00"
"05:19:58","21","17.2","85.3","30.51","323","0.5","2.4","0.00","0.00"
"05:24:56","21","17.4","85.6","30.51","323","0","0","0.00","0.00"
"05:29:59","21","17.2","85","30.52","323","0","0","0.00","0.00"
"05:34:58","21","17.2","85","30.52","323","0","0","0.00","0.00"
"05:39:59","20.9","17.1","85","30.52","323","0","0","0.00","0.00"
"05:44:58","20.8","17","85","30.53","323","0","0","0.00","0.00"
"05:49:57","20.6","16.8","85","30.53","323","0","0","0.00","0.00"
"05:54:56","20.5","16.7","85","30.53","323","0","0","0.00","0.00"
"05:59:59","20.3","16.6","85.4","30.53","323","0.2","2.4","0.00","0.00"
"06:04:56","20.6","17.3","86.7","30.53","323","2.5","3.6","0.00","0.00"
"06:09:57","21.3","17.9","86.5","30.53","315","2.6","3.6","0.00","0.00"
"06:14:58","21.9","18.2","85.5","30.53","309","2.3","4.8","0.00","0.00"
"06:19:56","22.3","18.4","84.5","30.51","309","0.4","2.4","0.00","0.00"
"06:24:59","22.3","18","83.2","30.51","309","0","1.2","0.00","0.00"
"06:29:57","22.1","17.7","83","30.52","309","0","0","0.00","0.00"
"06:34:56","22","17.6","83","30.52","309","0","0","0.00","0.00"
"06:39:58","21.8","17.4","83","30.52","309","0","0","0.00","0.00"
"06:44:57","21.7","17.3","83","30.52","309","0","0","0.00","0.00"
"06:49:56","21.4","17","83","30.52","309","0","0","0.00","0.00"
"06:54:58","21.1","16.8","83.3","30.52","309","0","0","0.00","0.00"
"06:59:57","21","16.9","84","30.52","309","0","0","0.00","0.00"
"07:04:59","20.8","16.8","84.2","30.51","309","0","0","0.00","0.00"
"07:09:59","20.7","16.9","85","30.51","309","0","0","0.00","0.00"
"07:14:56","20.6","16.8","85","30.52","309","0","1.2","0.00","0.00"
"07:19:58","20.5","16.7","85","30.52","309","0.1","1.2","0.00","0.00"
"07:24:57","20.3","16.8","85.9","30.52","309","0","0","0.00","0.00"
"07:29:56","20.2","16.7","86","30.52","309","0","0","0.00","0.00"
"07:34:56","20.2","16.7","86","30.52","309","0","0","0.00","0.00"
"07:39:57","20.1","16.6","86","30.52","309","0","0","0.00","0.00"
"07:44:57","20","16.7","86.6","30.52","309","0","0","0.00","0.00"
"07:49:57","20.1","16.9","87","30.52","309","0","0","0.00","0.00"
"07:54:56","20.2","17.2","88","30.52","309","0","0","0.00","0.00"
"07:59:56","20.4","17.4","88","30.53","309","0","0","0.00","0.00"
"08:04:58","20.6","17.6","88","30.53","309","0","0","0.00","0.00"
"08:09:57","20.9","17.9","88","30.53","309","0.2","1.2","0.00","0.00"
"08:14:58","21.6","18.5","87.8","30.53","309","0.1","1.2","0.00","0.00"
"08:19:57","22.1","18.8","87.1","30.53","309","0.1","2.4","0.00","0.00"
"08:24:59","22.8","19.4","86.5","30.53","309","0.8","2.4","0.00","0.00"
"08:29:57","23.8","19.9","85","30.53","309","0.3","1.2","0.00","0.00"
"08:34:56","24.4","20.3","84","30.53","309","0.1","1.2","0.00","0.00"
"08:39:56","25.1","20.6","82.7","30.53","309","0.7","2.4","0.00","0.00"
"08:44:59","25.9","20.9","80.9","30.53","305","1.8","4.8","0.00","0.00"
"08:49:57","26.6","21.3","80","30.53","274","0.9","4.6","0.00","0.00"
"08:54:56","27.2","21.6","79","30.53","273","1.9","3.6","0.00","0.00"
"08:59:58","27.8","21.6","77.3","30.54","287","2.4","7.2","0.00","0.00"
"09:04:57","28.3","21.8","76.3","30.54","325","3.7","7.2","0.00","0.00"
"09:09:56","28.7","21.9","75.5","30.54","320","3.4","8.4","0.00","0.00"
"09:14:57","29","21.8","74.2","30.54","335","4.2","8.1","0.00","0.00"
"09:19:59","29.2","21.8","73.7","30.54","334","4.2","7.2","0.00","0.00"
"09:24:58","29.6","22.2","73.9","30.54","324","2.4","7.2","0.00","0.00"
"09:29:57","29.9","22.4","73.1","30.55","314","2.9","7.2","0.00","0.00"
"09:34:59","30.2","22.3","72","30.55","321","2.7","6","0.00","0.00"
"09:39:56","30.6","22.5","71.7","30.55","326","2.8","7.2","0.00","0.00"
"09:44:59","31","22.6","70.8","30.55","348","3.1","7.2","0.00","0.00"
"09:49:57","31.4","22.8","70.2","30.55","347","3.1","8.4","0.00","0.00"
"09:54:59","31.7","22.8","69.3","30.55","325","3.7","8.1","0.00","0.00"
"09:59:57","32","23","69","30.55","344","2.9","14.4","0.00","0.00"
"10:04:59","32.2","22.7","67.6","30.54","323","5.3","15","0.00","0.00"
"10:09:57","32.2","22.8","67.7","30.54","312","4","12","0.00","0.00"
"10:14:58","32.5","23.1","68","30.54","339","3.3","9.6","0.00","0.00"
"10:19:56","33","23.2","67.2","30.54","341","5.2","13.2","0.00","0.00"
"10:24:59","33.3","23.3","66.2","30.54","315","3","7.2","0.00","0.00"
"10:29:57","33.6","24","67.5","30.54","306","3","8.4","0.00","0.00"
"10:34:56","34","24.2","67","30.54","259","2.4","6","0.00","0.00"
"10:39:57","34.4","24.2","66","30.54","300","2.8","8.4","0.00","0.00"
"10:44:56","34.5","23.9","65","30.54","277","2.9","7.2","0.00","0.00"
"10:49:58","34.7","24","64.8","30.54","326","4","8.4","0.00","0.00"
"10:54:56","34.8","23.9","64","30.54","317","3.6","7.2","0.00","0.00"
"10:59:59","35","24.2","64.2","30.54","273","4.1","8.4","0.00","0.00"
"11:04:57","35.2","24.1","63.6","30.54","299","3.8","13.2","0.00","0.00"
"11:09:59","35.2","24","63.3","30.54","306","3.4","12","0.00","0.00"
"11:14:56","35.4","24","62.8","30.54","245","3","6","0.00","0.00"
"11:19:59","35.6","24.1","62.8","30.53","259","2.2","4.8","0.00","0.00"
"11:24:57","35.8","24.2","62.5","30.53","325","4.4","8.4","0.00","0.00"
"11:29:56","35.9","23.9","61.5","30.53","338","4.2","10.8","0.00","0.00"
"11:34:58","36.1","24.5","62.6","30.52","314","3.3","8.4","0.00","0.00"
"11:39:59","36.1","23.6","60.1","30.52","296","4.1","8.4","0.00","0.00"
"11:44:58","36","24.1","61.9","30.52","350","2.8","7.2","0.00","0.00"
"11:49:56","36.3","24","60.8","30.51","301","3.9","8.4","0.00","0.00"
"11:54:59","36.4","23.9","60","30.51","344","4.1","8.4","0.00","0.00"
"11:59:57","36.6","24.2","60.5","30.51","276","3.6","6","0.00","0.00"
"12:04:59","36.9","24.4","60.3","30.50","284","4.5","10.8","0.00","0.00"
"12:09:58","37","24.5","60.3","30.50","270","3.8","8.4","0.00","0.00"
"12:14:59","37.2","24.5","59.7","30.50","283","2.3","6","0.00","0.00"
"12:19:57","37.3","24.7","60","30.48","276","1.9","4.8","0.00","0.00"
"12:24:56","37.8","25.2","60.3","30.48","234","2.4","6","0.00","0.00"
"12:29:58","38","24.8","58.8","30.48","315","3.8","7.2","0.00","0.00"
"12:34:56","38.1","24.8","58.5","30.47","301","2.9","8.4","0.00","0.00"
"12:39:57","38.4","25.1","58.5","30.47","256","3.9","9.6","0.00","0.00"
"12:44:58","38.1","24.4","57.5","30.47","292","4.1","10.8","0.00","0.00"
"12:49:57","38.1","24.9","58.6","30.47","275","2.9","4.8","0.00","0.00"
"12:54:56","38.1","24.5","57.9","30.47","290","4.6","12","0.00","0.00"
"12:59:58","37.9","24.5","58.3","30.47","315","3.8","7.2","0.00","0.00"
"13:04:56","38","24.7","58.5","30.47","238","4.2","8.4","0.00","0.00"
"13:09:58","38.3","24.8","58.1","30.47","230","4.6","8.4","0.00","0.00"
"13:14:57","38.7","25.1","57.8","30.47","260","2.5","6","0.00","0.00"
"13:19:56","38.9","24.9","56.8","30.46","278","2.9","6","0.00","0.00"
"13:24:59","38.6","24.4","56.2","30.46","314","4.1","10.8","0.00","0.00"
"13:29:57","38.5","24.7","57.2","30.46","309","3.5","10.4","0.00","0.00"
"13:34:56","38.8","24.8","56.8","30.46","320","3.3","6","0.00","0.00"
"13:39:57","39.1","25.2","57.2","30.46","324","1.8","4.8","0.00","0.00"
"13:44:59","39.6","25.7","57.2","30.46","257","3.6","7.2","0.00","0.00"
"13:49:58","39.7","24.8","55","30.46","305","2.7","6.9","0.00","0.00"
"13:54:57","39.4","24.9","55.8","30.46","236","4.2","8.4","0.00","0.00"
"13:59:59","39.4","25.1","56.2","30.46","265","3.1","8.4","0.00","0.00"
"14:04:57","39.4","24.9","55.6","30.45","314","4.3","8.4","0.00","0.00"
"14:09:56","39.3","24.5","55.2","30.45","294","2.7","4.8","0.00","0.00"
"14:14:57","39.5","25.3","56.5","30.45","229","3.4","6","0.00","0.00"
"14:19:56","40","25.6","56.2","30.44","240","2.3","8.4","0.00","0.00"
"14:24:58","40.2","25.6","55.6","30.44","234","4.1","7.2","0.00","0.00"
"14:29:57","39.8","25","55.2","30.44","299","4","7.2","0.00","0.00"
"14:34:56","39.8","25.5","56.4","30.44","248","2.1","6","0.00","0.00"
"14:39:57","40.2","25.4","55.4","30.44","332","4.1","8.4","0.00","0.00"
"14:44:59","40.5","25.6","55.1","30.44","305","3","7.2","0.00","0.00"
"14:49:58","40.3","25.1","54.2","30.44","323","3.2","8.4","0.00","0.00"
"14:54:56","40.2","25","54.3","30.44","234","4.2","7.2","0.00","0.00"
"14:59:59","40.3","25.4","54.8","30.44","239","2.9","4.8","0.00","0.00"
"15:04:57","40.4","25","53.8","30.44","292","2.1","4.8","0.00","0.00"
"15:09:56","40.3","24.9","53.9","30.44","254","3.3","8.4","0.00","0.00"
"15:14:57","39.7","24.6","54.5","30.44","245","3.6","8.4","0.00","0.00"
"15:19:59","39.1","24.3","55.2","30.44","303","2.6","8.1","0.00","0.00"
"15:24:57","38.7","24.3","56","30.44","308","2.9","6","0.00","0.00"
"15:29:57","38.6","24.7","56.9","30.45","293","1.8","4.8","0.00","0.00"
"15:34:57","38.6","24.4","56.5","30.45","307","3.2","6","0.00","0.00"
"15:39:57","38.6","24.4","56.5","30.45","306","2.6","4.8","0.00","0.00"
"15:44:57","38.4","24.4","56.6","30.45","313","2.9","7.2","0.00","0.00"
"15:49:57","38.3","24.4","57.1","30.44","318","2.4","4.8","0.00","0.00"
"15:54:59","38.1","24","56.5","30.44","326","2.7","6","0.00","0.00"
"15:59:58","37.9","24.1","57.3","30.45","332","2.1","4.8","0.00","0.00"
"16:04:56","37.7","24.2","58","30.45","314","1.6","4.8","0.00","0.00"
"16:09:59","37.6","24.3","58.3","30.45","312","1.2","3.6","0.00","0.00"
"16:14:57","37.5","24.2","58.2","30.45","308","1.6","4.8","0.00","0.00"
"16:19:59","37.3","24.2","58.7","30.45","306","1.1","3.5","0.00","0.00"
"16:24:58","37.2","24.2","59.2","30.45","304","1.2","3.6","0.00","0.00"
"16:29:57","37","24","59","30.46","303","0.7","3.5","0.00","0.00"
"16:34:56","36.9","24.1","59.3","30.46","303","1","3.6","0.00","0.00"
"16:39:57","36.8","24","59.6","30.46","303","0.5","2.4","0.00","0.00"
"16:44:56","36.7","24.1","60","30.46","303","0.7","3.6","0.00","0.00"
"16:49:59","36.6","23.9","59.8","30.46","303","0.4","2.4","0.00","0.00"
"16:54:59","36.4","23.8","60","30.46","303","0","1.2","0.00","0.00"
"16:59:58","36.3","23.9","60.7","30.46","303","0","0","0.00","0.00"
"17:04:56","36.1","23.9","60.9","30.46","303","0.2","3.6","0.00","0.00"
"17:09:59","35.9","23.7","61","30.46","303","2.1","4.8","0.00","0.00"
"17:14:57","35.7","23.6","61","30.47","303","0.8","3.6","0.00","0.00"
"17:19:56","35.5","23.8","61.9","30.47","303","0","1.2","0.00","0.00"
"17:24:59","35.3","23.6","62","30.47","303","0","0","0.00","0.00"
"17:29:58","35","23.3","62","30.47","303","0","1.2","0.00","0.00"
"17:34:57","34.6","23.3","62.9","30.47","303","0","0","0.00","0.00"
"17:39:59","34.2","23.1","63.3","30.47","303","0","0","0.00","0.00"
"17:44:58","33.9","23","64","30.48","303","0","0","0.00","0.00"
"17:49:58","33.5","22.9","64.8","30.48","303","0","0","0.00","0.00"
"17:54:57","33.2","22.7","65","30.48","303","0","0","0.00","0.00"
"17:59:56","32.9","22.6","65.6","30.48","303","0","0","0.00","0.00"
"18:04:58","32.5","22.7","66.9","30.47","303","0","0","0.00","0.00"
"18:09:57","32.1","22.6","67.7","30.47","303","0","0","0.00","0.00"
"18:14:59","31.8","22.5","68.2","30.47","303","0","0","0.00","0.00"
"18:19:58","31.4","22.4","69","30.47","303","0","0","0.00","0.00"
"18:24:57","31","22.4","70","30.47","303","0","0","0.00","0.00"
"18:29:56","30.6","22","70","30.47","303","0","0","0.00","0.00"
"18:34:56","30.3","21.9","70.6","30.47","303","0","0","0.00","0.00"
"18:39:58","30.1","22.1","71.7","30.47","303","0","0","0.00","0.00"
"18:44:57","29.9","22","72","30.47","303","0","0","0.00","0.00"
"18:49:56","29.8","22","72.3","30.47","303","0.1","1.2","0.00","0.00"
"18:54:56","29.4","22","73.6","30.47","303","0","0","0.00","0.00"
"18:59:57","29","21.8","74.3","30.48","303","0","0","0.00","0.00"
"19:04:56","28.8","21.9","75","30.48","303","0","0","0.00","0.00"
"19:09:59","28.7","21.8","75","30.48","303","0","0","0.00","0.00"
"19:14:58","28.6","21.7","75","30.48","303","0","0","0.00","0.00"
"19:19:58","28.4","21.7","75.9","30.47","303","0","0","0.00","0.00"
"19:24:57","28.1","21.6","76.5","30.47","303","0","0","0.00","0.00"
"19:29:56","27.9","21.6","77","30.48","303","0","0","0.00","0.00"
"19:34:59","27.8","21.5","77","30.48","303","0","0","0.00","0.00"
"19:39:56","27.8","21.5","77.1","30.48","303","0","0","0.00","0.00"
"19:44:58","27.7","21.7","78","30.48","303","0","0","0.00","0.00"
"19:49:57","27.6","21.5","77.8","30.48","303","0","0","0.00","0.00"
"19:54:59","27.4","21.4","78","30.48","303","0","0","0.00","0.00"
"19:59:58","27.4","21.4","78","30.48","303","0","0","0.00","0.00"
"20:04:56","27.2","21.2","78","30.48","303","0","0","0.00","0.00"
"20:09:59","27","21.3","78.8","30.48","303","0","0","0.00","0.00"
"20:14:56","26.8","21.2","79","30.48","303","0","0","0.00","0.00"
"20:19:58","26.7","21.3","79.5","30.48","303","0","0","0.00","0.00"
"20:24:57","26.6","21.1","79.5","30.48","303","0","0","0.00","0.00"
"20:29:56","26.5","21.1","79.7","30.48","303","0","0","0.00","0.00"
"20:34:58","26.4","20.8","79","30.48","303","0","0","0.00","0.00"
"20:39:59","26.2","20.8","79.6","30.48","303","0","0","0.00","0.00"
"20:44:58","26","20.7","80","30.48","303","0","0","0.00","0.00"
"20:49:56","25.8","20.5","80","30.48","303","0","0","0.00","0.00"
"20:54:59","25.6","20.5","80.9","30.48","303","0","0","0.00","0.00"
"20:59:57","25.4","20.5","81.4","30.48","303","0","0","0.00","0.00"
"21:04:59","25.3","20.6","82","30.48","303","0","0","0.00","0.00"
"21:09:59","25.1","20.4","82","30.48","303","0","0","0.00","0.00"
"21:14:56","24.9","20.2","82","30.48","303","0","0","0.00","0.00"
"21:19:58","24.8","20.1","82.1","30.48","303","0","0","0.00","0.00"
"21:24:56","24.6","20.1","82.7","30.48","303","0","0","0.00","0.00"
"21:29:59","24.4","20","83","30.48","303","0","0","0.00","0.00"
"21:34:57","24.3","19.9","83","30.48","303","0","0","0.00","0.00"
"21:39:59","24.2","20","83.7","30.48","303","0","0","0.00","0.00"
"21:44:57","24.1","20","84","30.48","303","0","0","0.00","0.00"
"21:49:59","24.1","20","84","30.47","303","0","0","0.00","0.00"
"21:54:58","24.2","20.1","84","30.47","303","0","0","0.00","0.00"
"21:59:57","24.3","20.2","84","30.47","303","0","0","0.00","0.00"
"22:04:59","24.3","20.2","84","30.46","303","0","0","0.00","0.00"
"22:09:58","24.2","20.1","84","30.46","303","0","0","0.00","0.00"
"22:14:59","24","19.9","84","30.46","303","0","0","0.00","0.00"
"22:19:58","23.8","19.7","84.1","30.46","303","0","0","0.00","0.00"
"22:24:56","23.7","19.9","85","30.46","303","0","0","0.00","0.00"
"22:29:58","23.7","19.9","85","30.46","303","0","0","0.00","0.00"
"22:34:57","23.7","19.9","85","30.46","303","0","0","0.00","0.00"
"22:39:57","23.7","19.9","85","30.46","303","0","0","0.00","0.00"
"22:44:56","23.6","19.8","85","30.46","303","0","0","0.00","0.00"
"22:49:59","23.5","19.8","85.3","30.46","303","0","0","0.00","0.00"
"22:54:57","23.6","20","85.7","30.46","303","0","0","0.00","0.00"
"22:59:56","23.7","19.9","85","30.47","303","0","0","0.00","0.00"
"23:04:58","23.7","19.9","85","30.47","303","0","0","0.00","0.00"
"23:09:58","23.8","19.9","85","30.47","303","0","0","0.00","0.00"
"23:14:59","23.7","19.9","85","30.47","303","0","0","0.00","0.00"
"23:19:57","23.5","19.7","85","30.47","303","0","0","0.00","0.00"
"23:24:59","23.4","19.6","85","30.47","303","0","0","0.00","0.00"
"23:29:58","23.3","19.5","85","30.48","303","0","0","0.00","0.00"
"23:34:57","23.1","19.3","85","30.48","303","0","0","0.00","0.00"
"23:39:58","22.9","19.1","85","30.48","303","0","0","0.00","0.00"
"23:44:56","22.8","19","85","30.48","303","0","0","0.00","0.00"
"23:49:59","22.6","18.9","85.7","30.48","303","0","0","0.00","0.00"
"23:54:58","22.4","18.8","86","30.48","303","0","0","0.00","0.00"
